TimeEST,TemperatureF,Dew PointF,Humidity,Sea Level PressureIn,VisibilityMPH,Wind Direction,Wind SpeedMPH,Gust SpeedMPH,PrecipitationIn,Events,Conditions,WindDirDegrees,DateUTC
12:52 AM,26.1,12.0,55,29.81,10.0,West,8.1,-,N/A,,Clear,270,2013-02-21 05:52:00
1:52 AM,27.0,12.9,56,29.81,10.0,West,11.5,-,N/A,,Mostly Cloudy,260,2013-02-21 06:52:00
2:52 AM,27.0,12.9,56,29.80,10.0,WSW,12.7,-,N/A,,Clear,250,2013-02-21 07:52:00
3:52 AM,27.0,14.0,58,29.81,10.0,WSW,9.2,-,N/A,,Overcast,250,2013-02-21 08:52:00
4:52 AM,26.1,12.9,58,29.81,10.0,West,11.5,-,N/A,,Scattered Clouds,260,2013-02-21 09:52:00
5:52 AM,26.1,12.9,58,29.82,10.0,WSW,12.7,-,N/A,,Mostly Cloudy,250,2013-02-21 10:52:00
6:52 AM,26.1,12.0,55,29.83,10.0,West,8.1,18.4,N/A,,Partly Cloudy,270,2013-02-21 11:52:00
8:52 AM,26.1,10.9,53,29.82,10.0,West,12.7,18.4,N/A,,Overcast,280,2013-02-21 13:52:00
9:52 AM,28.0,12.0,51,29.81,10.0,West,15.0,25.3,N/A,,Clear,280,2013-02-21 14:52:00
10:52 AM,30.9,12.0,46,29.81,10.0,WNW,11.5,-,N/A,,Clear,290,2013-02-21 15:52:00
11:52 AM,32.0,12.0,44,29.80,10.0,WNW,18.4,26.5,N/A,,Mostly Cloudy,300,2013-02-21 16:52:00
12:52 PM,33.1,12.0,42,29.79,10.0,NW,19.6,29.9,N/A,,Partly Cloudy,320,2013-02-21 17:52:00
1:52 PM,34.0,12.0,40,29.79,10.0,NW,18.4,28.8,N/A,,Scattered Clouds,320,2013-02-21 18:52:00
2:52 PM,34.0,12.0,40,29.81,10.0,NNW,10.4,20.7,N/A,,Clear,340,2013-02-21 19:52:00
3:52 PM,34.0,12.0,40,29.83,10.0,NNW,12.7,21.9,N/A,,Clear,330,2013-02-21 20:52:00
4:52 PM,32.0,10.9,42,29.88,10.0,NW,17.3,21.9,N/A,,Scattered Clouds,320,2013-02-21 21:52:00
5:52 PM,30.0,12.0,47,29.92,10.0,NW,12.7,20.7,N/A,,Mostly Cloudy,320,2013-02-21 22:52:00
6:52 PM,30.0,12.0,47,29.97,10.0,NNW,12.7,24.2,N/A,,Overcast,330,2013-02-21 23:52:00
7:52 PM,28.9,12.0,49,30.00,10.0,NNW,12.7,21.9,N/A,,Scattered Clouds,330,2013-02-22 00:52:00
8:52 PM,28.0,12.9,53,30.04,10.0,NNW,12.7,25.3,N/A,,Clear,340,2013-02-22 01:52:00
9:52 PM,28.0,14.0,56,30.07,10.0,NNW,13.8,21.9,N/A,,Clear,340,2013-02-22 02:52:00
10:52 PM,28.0,15.1,58,30.10,10.0,NW,12.7,-,N/A,,Clear,320,2013-02-22 03:52:00
11:52 PM,28.9,16.0,58,30.14,10.0,NW,11.5,18.4,N/A,,Overcast,320,2013-02-22 04:52:00